sat.trackr.live / text

‹ back to catalog

STARLINK-4378

NORAD 53476 · 2022-099M

PAYLOAD ACTIVE UNKNOWN

§ Identity

Operator
Country
US
Launch date
2022-08-12
Launch site
AFWTR
Launch vehicle
Mass (kg)
RCS (m²)

Purposes: comms

External: N2YO · Heavens-Above · Gunter

§ Orbital elements

Epoch: 2026-09-20T01:43:22.965312Z

Period
95.29 min
Inclination
97.2815°
Eccentricity
0.0002308
Mean motion
15.11198980 rev/d
Perigee alt
530.9 km
Apogee alt
534.1 km
Semi-major
6,910.7 km
B*
4.5702e-3
RAAN
17.0717°
Arg perigee
73.1072°
Mean anomaly
287.0412°
Rev number
22,522

§ Raw data

STARLINK-43781 53476U 22099M   26263.07179358  .00077453  00000+0  45702-2 0  99912 53476  97.2815  17.0717 0002308  73.1072 287.0412 15.11198980225225

JSON: /api/v1/satellites/53476 · /tle

For live sub-satellite position, see the globe view (requires WebGL).

§ Visibility from observer

Set your observer location to see the next 7 days of passes ≥ 10°. The values pass through the URL so the page stays shareable.

No JS? Fill the form by hand. The geolocation button needs JavaScript.